Kuchera_Ratio
0.0 0.0 0.0 0.0 0.0 0.0 0.0 0.0 0.0 1.5 0.0 0.0 0.0 0.0 0.0 0.0 0.0 0.0 0.0 0.0 0.0 0.0 0.0 0.0 0.0 0.0 0.0 0.0 0.0 0.0 0.0 0.0 0.0 0.0 0.0 0.0 0.0 0.0
0.0 0.0 0.0 0.0 0.0 0.0 0.0 0.0 0.0 0.0 2.8 0.0 0.0 0.0 0.0 0.0 0.0 0.0 0.0 0.0 0.0 0.0 0.0 0.0 0.0 0.0 0.0 0.0 0.0 0.0 0.0 0.0 0.0 0.0 0.0 0.0 0.0 0.0
0.0 0.0 0.0 0.0 0.0 0.0 0.0 0.0 0.0 0.0 3.4 0.0 0.0 0.0 0.0 0.0 0.0 0.0 0.0 0.0 0.0 0.0 0.0 0.0 0.0 0.0 0.0 0.0 0.0 0.0 0.0 0.0 0.0 0.0 0.0 0.0 0.0 0.0
0.0 0.0 0.0 0.0 0.0 0.0 0.0 0.0 0.0 0.0 1.1 3.2 0.0 0.0 0.0 0.0 0.0 0.0 0.0 0.0 0.0 0.0 0.0 0.0 0.0 0.0 0.0 0.0 0.0 0.0 0.0 0.0 0.0 0.0 0.0 0.0 0.0 0.0
0.0 0.0 0.0 0.0 0.0 0.0 0.0 0.0 0.0 0.0 0.0 3.2 2.7 0.0 0.0 0.0 0.0 0.0 0.0 0.0 0.0 0.0 0.0 0.0 0.0 0.0 0.0 0.0 0.0 0.0 0.0 0.0 0.0 0.0 0.0 0.0 0.0 0.0
0.0 0.0 0.0 0.0 0.0 0.0 0.0 0.0 0.0 0.4 0.1 2.1 3.1 2.8 0.2 0.0 0.0 0.0 0.0 0.0 0.0 0.0 0.0 0.0 0.0 0.0 0.0 0.0 0.0 0.0 0.0 0.0 0.0 0.0 0.0 0.0 0.0 0.0
0.0 0.0 0.0 0.0 0.0 0.0 0.0 0.0 0.0 0.8 1.5 2.7 4.0 2.5 1.2 0.3 0.8 0.0 0.0 0.0 0.0 0.0 0.0 0.0 0.0 0.0 0.0 0.0 0.0 0.0 0.0 0.0 0.0 0.0 0.0 0.0 0.0 0.0
0.0 0.0 0.0 0.0 0.0 0.0 0.0 0.0 0.0 0.2 1.9 2.8 3.2 3.8 1.9 0.9 0.0 0.4 1.6 3.4 7.4 0.0 0.0 0.0 0.0 0.0 0.0 0.0 0.0 0.0 0.0 0.0 0.0 0.0 0.0 0.0 0.0 0.0
0.0 0.0 0.0 0.0 0.0 0.0 0.0 0.0 0.0 0.0 0.0 0.0 2.3 1.3 1.8 0.0 0.0 2.4 2.4 2.7 3.9 0.0 0.0 3.3 0.0 0.6 0.0 0.0 0.0 0.0 0.0 0.0 0.0 0.0 0.0 0.0 0.0 0.0
0.0 0.0 0.0 0.0 0.0 0.3 1.8 1.7 1.1 0.6 0.0 0.0 0.0 0.0 0.0 0.0 0.0 0.0 1.1 3.2 2.4 0.0 0.0 7.2 0.0 0.0 0.0 0.0 0.0 0.0 0.0 0.0 0.0 0.0 0.0 0.0 0.0 0.0
0.4 0.3 1.3 2.0 0.6 0.0 0.1 2.0 1.6 1.0 0.0 0.0 0.0 0.0 0.0 0.0 0.0 0.0 3.6 4.4 6.2 3.0 0.0 3.0 1.5 0.9 0.0 0.0 0.0 0.0 0.0 0.0 0.0 0.0 0.0 0.0 0.0 0.0
0.3 0.7 1.0 0.0 0.0 0.0 0.0 0.5 3.6 1.7 0.6 0.0 0.0 0.0 0.0 0.0 0.0 0.0 2.1 7.7 7.8 9.8 1.4 6.8 4.1 3.4 7.1 0.0 0.0 0.0 0.0 0.0 0.0 0.0 0.0 0.0 0.0 0.0
2.2 1.6 0.3 0.0 0.0 0.0 0.0 0.0 1.7 0.0 0.0 1.1 1.7 1.1 2.3 2.6 2.2 1.5 2.0 4.9 8.6 8.8 0.3 3.2 6.7 6.2 7.7 6.6 1.9 0.0 0.0 0.0 0.0 0.0 0.0 0.0 0.0 0.0
3.0 1.5 0.8 0.6 0.0 0.0 0.0 0.0 0.0 0.0 0.6 3.0 4.3 5.0 5.0 5.8 4.6 4.4 4.0 3.3 2.8 6.0 2.9 4.3 9.1 7.9 8.3 8.8 8.2 1.6 0.0 0.0 0.0 0.5 2.2 2.4 0.3 0.0
1.0 0.6 0.0 0.0 0.0 0.0 0.0 0.0 0.0 4.1 6.4 8.3 7.2 6.9 6.1 5.3 5.2 6.4 5.6 4.9 4.5 3.8 2.2 3.3 7.1 7.2 8.4 10.0 9.9 7.0 6.5 3.2 1.1 3.2 3.5 3.4 2.4 1.5
2.0 4.8 3.7 2.4 0.4 1.8 3.0 5.4 4.5 4.7 6.0 7.5 8.2 6.4 6.1 7.8 8.8 7.5 8.9 7.4 9.3 7.4 3.8 3.2 4.9 6.7 9.0 8.2 8.5 9.1 6.5 8.9 4.0 4.2 4.8 4.4 3.5 3.0
2.5 4.0 5.8 5.6 6.3 6.8 6.0 6.3 6.5 7.1 9.3 8.3 9.7 9.5 9.9 8.9 9.8 7.8 9.1 9.0 10.8 9.4 8.4 5.7 5.9 6.6 7.1 8.1 10.4 7.9 6.6 6.8 5.2 6.9 7.4 7.4 4.8 3.0
6.3 9.0 9.4 9.0 9.6 9.5 10.2 9.9 9.3 9.4 9.3 9.7 10.2 11.6 12.3 12.1 11.6 10.1 9.5 10.2 10.8 9.5 9.2 7.2 7.9 9.0 9.6 8.1 6.7 8.5 7.7 8.2 8.1 7.8 7.7 10.7 8.6 3.9
10.0 10.5 11.4 11.5 11.7 11.6 11.4 11.4 12.1 10.7 10.1 11.7 12.1 12.2 12.1 12.1 12.1 11.9 11.6 11.1 10.9 9.7 8.2 9.2 10.0 11.3 12.9 13.4 9.4 7.5 9.5 9.5 9.2 9.7 8.7 9.0 10.6 7.6
10.8 12.1 12.5 12.1 12.1 12.2 12.2 12.5 12.2 12.1 12.1 12.3 12.5 12.4 12.5 12.7 12.8 12.6 12.0 12.2 11.3 9.4 10.6 10.5 11.1 11.6 12.5 12.5 12.3 10.4 9.4 10.3 10.9 11.4 11.0 8.5 7.6 5.8
12.2 12.4 12.0 12.2 12.4 12.4 12.4 12.4 12.5 12.6 12.5 12.5 12.5 12.8 12.7 12.9 13.0 12.4 11.9 9.7 9.0 9.5 11.5 11.4 10.2 8.4 10.4 11.2 12.8 12.7 11.0 9.3 9.5 11.8 11.8 12.5 12.8 11.7
12.1 12.7 12.4 12.2 12.3 12.5 12.5 12.4 12.7 12.7 12.9 12.9 12.8 12.8 12.6 12.5 12.6 12.1 11.1 10.7 10.6 10.3 11.9 12.3 11.4 11.2 12.0 12.8 13.7 13.8 12.9 11.2 9.3 9.2 8.8 9.6 12.4 14.1
12.8 12.6 12.6 12.5 12.4 12.5 12.4 12.7 13.1 13.1 12.9 13.1 13.0 12.8 12.7 12.7 11.4 10.1 9.7 10.4 11.0 12.6 12.8 13.1 12.7 12.5 13.2 13.6 13.6 14.0 14.2 13.5 12.6 12.5 10.8 8.8 8.0 7.6